Retour au catalogue

COSMOS 374 DEB *

ActifLEO
NORAD 5028·DEBRIS·🇷🇺 Russia

Lancé Oct 23, 1970 depuis Baikonur Cosmodrome

Loading…

Prochains Passages

TLE

Source: Space-Track
1 05028U 70089Z   26229.09349366  .00000158  00000-0  22584-3 0  9998
2 05028  63.3101  99.0756 0647212 297.4074  56.2526 13.13898607614656

Suivez COSMOS 374 DEB * en temps réel avec AllMySat

Download on the App Store